MOLNIYA 1-88

Last updated on Jan. 25, 2020, 4:43 a.m. UTC

1 23420U 94081A   20024.44263686 -.00000058  00000-0  12081-2 0  9998
2 23420  63.9991  40.3275 6035592 295.6828  14.9901  3.34495722 84433
UTC
Height (km)
Latitude
Longitude
Inclination
Orbital Period
UTC large
Height (km)
Speed (km/s)
/
Latitude / Longitude
Inclination (degrees)
Orbital Period (minutes)
Azimuth
Elevation
Range (km)
Doppler Factor
iOS Compass Heading
iOS Angle

Next 30 passes for location: Hong Kong

Rise time Rise Azimuth (degrees) Set time Set Azimuth (degrees) Duration Max altitude (degrees)

No matching passes for this satellites